Location: Goettingen
(51.5300°N, 9.9433°E)
Time: 14:06:04
(UTC+02:00)

ISS - Pass Details

Date: 24 May 2018
Orbit: 402 x 407 km, 51.6° (Epoch: 25 May)

Event Time Altitude Azimuth Distance (km) Brightness Sun altitude
Rises 22:51:00 0° 251° (WSW) 2,316 0.2 -10.8°
Reaches altitude 10° 22:53:05 10° 249° (WSW) 1,457 -0.8 -11.0°
Maximum altitude 22:56:20 71° 165° (SSE) 430 -3.9 -11.3°
Drops below altitude 10° 22:59:36 10° 81° (E) 1,459 -1.2 -11.6°
Sets 23:01:41 0° 79° (E) 2,320 -0.2 -11.7°
